User: anonymous
Location: Caltech
(34.1382°N, 118.1253°W)
Time: 01:14:33
(UTC-07:00)
Language:

NOSS 3-4 (C) - Orbit

View from above orbital plane
View from above orbital plane
View from above satellite
View from above satellite

Ground track
Ground track

The orbit data is extracted from the following two-line orbital elements,

1 31708U 07027C   14230.89951721 0.00000000  00000-0  00000-0 0    00
2 31708  63.4040 196.7600 0111000  36.9538 323.0462 13.40651594    02
Epoch (UTC): 18 August 2014 21:35:18
Eccentricity: 0.0111000
inclination: 63.4040°
perigee height: 1024 km
apogee height: 1190 km
right ascension of ascending node: 196.7600°
argument of perigee: 36.9538°
revolutions per day: 13.40651594
mean anomaly at epoch: 323.0462°
orbit number at epoch: 0

The dashed part of the orbit path shows where the satellite is in the earth's shadow,  

DLR